GW6677 Weather Reports


time (UTC)temp
F
wind
direction
speed
knots
gust
knots
rain 1hr
in
rain 24hr
in
rain mn
in
humidity
%
barometer
mb
20260906161042 76 333 0.9 0.9 0.00 0.00 0.00 68 1019.7
20260906160541 77 333 0.0 0.0 0.00 0.00 0.00 69 1019.4
20260906160040 78 126 0.0 0.0 0.00 0.00 0.00 66 1019.4
20260906155538 77 132 1.7 1.7 0.00 0.00 0.00 67 1019.4
20260906155034 78 168 0.0 0.0 0.00 0.00 0.00 68 1018.9
20260906154529 77 204 0.0 0.0 0.00 0.00 0.00 67 1019.4
20260906154028 76 209 1.7 1.7 0.00 0.00 0.00 69 1018.9
20260906153527 76 246 1.7 1.7 0.00 0.00 0.00 73 1019.4
20260906153022 76 60 1.7 1.7 0.00 0.00 0.00 71 1019.4
20260906152516 77 100 0.9 0.9 0.00 0.00 0.00 70 1019.4
20260906152016 77 67 0.0 0.0 0.00 0.00 0.00 69 1019.4
20260906151512 76 63 0.9 0.9 0.00 0.00 0.00 74 1019.4
20260906151007 76 65 0.0 0.0 0.00 0.00 0.00 71 1018.9
20260906150503 76 40 0.0 0.0 0.00 0.00 0.00 72 1018.9
20260906150002 75 41 0.0 0.0 0.00 0.00 0.00 71 1018.9
20260906145501 74 30 1.7 1.7 0.00 0.00 0.00 78 1019.4
20260906145001 76 94 1.7 1.7 0.00 0.00 0.00 73 1018.9
20260906144456 75 147 0.0 0.0 0.00 0.00 0.00 76 1018.9
20260906143951 74 152 0.0 0.0 0.00 0.00 0.00 76 1018.9
20260906143447 73 153 0.9 0.9 0.00 0.00 0.00 76 1018.9
20260906142943 72 156 0.0 0.0 0.00 0.00 0.00 79 1018.6
20260906142436 72 156 1.7 1.7 0.00 0.00 0.00 82 1018.9
20260906141931 72 156 1.7 1.7 0.00 0.00 0.00 83 1018.6
20260906141426 71 156 1.7 1.7 0.00 0.00 0.00 81 1018.9
20260906140925 70 157 0.0 0.0 0.00 0.00 0.00 84 1018.9
20260906140420 69 120 0.0 0.0 0.00 0.00 0.00 87 1018.9
20260906135918 68 119 1.7 1.7 0.00 0.00 0.00 89 1018.9
20260906135418 67 123 0.0 0.0 0.00 0.00 0.00 90 1018.6
20260906134913 67 122 1.7 1.7 0.00 0.00 0.00 90 1018.6
20260906134409 67 126 0.0 0.0 0.00 0.00 0.00 92 1019.4
20260906133903 66 126 1.7 1.7 0.00 0.00 0.00 92 1018.9
20260906133359 65 125 1.7 1.7 0.00 0.00 0.00 92 1018.9
20260906132855 65 224 0.0 0.0 0.00 0.00 0.00 95 1018.6
20260906132350 65 85 0.0 0.0 0.00 0.00 0.00 96 1018.6
20260906131845 64 86 0.0 0.0 0.00 0.00 0.00 97 1018.9
20260906131341 64 82 0.0 0.0 0.00 0.00 0.00 97 1019.4
20260906130836 63 111 0.0 0.0 0.00 0.00 0.00 98 1018.9
20260906130336 62 114 0.0 0.0 0.00 0.00 0.00 98 1019.4
20260906125835 62 114 0.0 0.0 0.00 0.00 0.00 98 1019.4
20260906125332 61 114 0.0 0.0 0.00 0.00 0.00 97 1018.9
20260906124827 60 114 0.0 0.0 0.00 0.00 0.00 97 1018.6
20260906124323 59 114 0.0 0.0 0.00 0.00 0.00 97 1018.9
20260906123822 58 114 0.0 0.0 0.00 0.00 0.00 97 1018.6
20260906123317 58 114 0.0 0.0 0.00 0.00 0.00 97 1018.6
20260906122817 57 114 0.0 0.0 0.00 0.00 0.00 97 1018.6
20260906122312 57 114 0.0 0.0 0.00 0.00 0.00 97 1018.6
20260906121809 57 114 0.0 0.0 0.00 0.00 0.00 97 1018.9
20260906121305 56 114 0.0 0.0 0.00 0.00 0.00 97 1018.6
20260906120801 56 114 0.0 0.0 0.00 0.00 0.00 97 1018.6
20260906120257 56 114 0.0 0.0 0.00 0.00 0.00 97 1018.2
20260906115753 56 114 0.0 0.0 0.00 0.00 0.00 97 1018.2
20260906115248 56 114 0.0 0.0 0.00 0.00 0.00 97 1018.6
20260906114747 56 114 0.0 0.0 0.00 0.00 0.00 97 1018.2
20260906114242 56 114 0.0 0.0 0.00 0.00 0.00 97 1018.2
20260906113737 56 114 0.0 0.0 0.00 0.00 0.00 97 1018.2
20260906113237 56 114 0.0 0.0 0.00 0.00 0.00 97 1017.9
20260906112736 56 114 0.0 0.0 0.00 0.00 0.00 97 1017.9
20260906112234 57 114 0.0 0.0 0.00 0.00 0.00 97 1017.9
20260906111733 57 114 0.0 0.0 0.00 0.00 0.00 97 1017.9
20260906111233 57 114 0.0 0.0 0.00 0.00 0.00 97 1017.9
20260906110728 57 114 0.0 0.0 0.00 0.00 0.00 97 1017.6
20260906110224 57 114 0.0 0.0 0.00 0.00 0.00 97 1017.6
20260906105722 57 114 0.0 0.0 0.00 0.00 0.00 97 1017.6
20260906105219 57 114 0.0 0.0 0.00 0.00 0.00 97 1017.6
20260906104719 57 114 0.0 0.0 0.00 0.00 0.00 97 1017.6
20260906104218 57 114 0.0 0.0 0.00 0.00 0.00 97 1017.6
20260906103715 57 114 0.0 0.0 0.00 0.00 0.00 97 1017.9
20260906103211 57 114 0.0 0.0 0.00 0.00 0.00 97 1017.6
20260906102706 58 114 0.0 0.0 0.00 0.00 0.00 97 1017.6
20260906102206 58 114 0.0 0.0 0.00 0.00 0.00 97 1017.6
20260906101705 58 114 0.0 0.0 0.00 0.00 0.00 97 1017.6
20260906101201 57 114 0.0 0.0 0.00 0.00 0.00 97 1017.6
20260906100656 57 114 0.0 0.0 0.00 0.00 0.00 97 1016.9
20260906100156 57 114 0.0 0.0 0.00 0.00 0.00 97 1017.2
20260906095651 57 114 0.0 0.0 0.00 0.00 0.00 97 1017.2
20260906095146 57 114 0.0 0.0 0.00 0.00 0.00 97 1017.2
20260906094645 56 114 0.0 0.0 0.00 0.00 0.00 97 1017.2
20260906094141 56 114 0.0 0.0 0.00 0.00 0.00 97 1017.6
20260906093638 56 114 0.0 0.0 0.00 0.00 0.00 97 1017.6
20260906093137 56 114 0.0 0.0 0.00 0.00 0.00 97 1017.6
20260906092632 57 114 0.0 0.0 0.00 0.00 0.00 97 1017.6
20260906092132 57 114 0.0 0.0 0.00 0.00 0.00 97 1017.2
20260906091629 57 114 0.0 0.0 0.00 0.00 0.00 97 1017.6
20260906091125 57 114 0.0 0.0 0.00 0.00 0.00 97 1017.6
20260906090620 57 114 0.0 0.0 0.00 0.00 0.00 97 1017.6
20260906090114 57 114 0.0 0.0 0.00 0.00 0.00 97 1017.6
20260906085613 57 114 0.0 0.0 0.00 0.00 0.00 97 1017.6
20260906085108 57 114 0.0 0.0 0.00 0.00 0.00 97 1017.2
20260906084603 57 114 0.0 0.0 0.00 0.00 0.00 97 1017.6
20260906084102 57 114 0.0 0.0 0.00 0.00 0.00 97 1017.6
20260906083557 58 114 0.0 0.0 0.00 0.00 0.00 97 1017.2
20260906083057 58 114 0.0 0.0 0.00 0.00 0.00 97 1017.6
20260906082552 58 114 0.0 0.0 0.00 0.00 0.00 97 1017.2
20260906082048 57 114 0.0 0.0 0.00 0.00 0.00 97 1017.2
20260906081543 58 114 0.0 0.0 0.00 0.00 0.00 97 1017.6
20260906081039 58 114 0.0 0.0 0.00 0.00 0.00 97 1017.6
20260906080535 58 114 0.0 0.0 0.00 0.00 0.00 97 1017.6
20260906080031 58 114 0.0 0.0 0.00 0.00 0.00 97 1017.6
20260906075531 58 114 0.0 0.0 0.00 0.00 0.00 97 1017.6
20260906075026 58 114 0.0 0.0 0.00 0.00 0.00 97 1017.6
20260906074520 58 114 0.0 0.0 0.00 0.00 0.00 97 1017.6
20260906074019 58 114 0.0 0.0 0.00 0.00 0.00 97 1017.6
20260906073514 58 114 0.0 0.0 0.00 0.00 0.00 97 1017.6
20260906073010 58 114 0.0 0.0 0.00 0.00 0.00 97 1017.6
20260906072505 58 114 0.0 0.0 0.00 0.00 0.00 97 1017.6
20260906072001 59 114 0.0 0.0 0.00 0.00 0.00 97 1017.6
20260906071457 59 114 0.0 0.0 0.00 0.00 0.00 97 1017.6
20260906070952 59 114 0.0 0.0 0.00 0.00 0.00 97 1017.6
20260906070448 59 114 0.0 0.0 0.00 0.00 0.00 97 1017.6
20260906065943 59 114 0.0 0.0 0.00 0.00 0.00 97 1017.6
20260906065437 59 114 0.0 0.0 0.00 0.00 0.00 97 1017.6
20260906064933 60 114 0.0 0.0 0.00 0.00 0.00 97 1017.6
20260906064429 60 114 0.0 0.0 0.00 0.00 0.00 97 1017.6
20260906063924 59 114 0.0 0.0 0.00 0.00 0.00 97 1017.6
20260906063419 59 114 0.0 0.0 0.00 0.00 0.00 97 1017.6
20260906062914 60 114 0.0 0.0 0.00 0.00 0.00 97 1017.6
20260906062414 60 114 0.0 0.0 0.00 0.00 0.00 97 1017.2
20260906061909 60 114 0.0 0.0 0.00 0.00 0.00 97 1017.2
20260906061406 60 114 0.0 0.0 0.00 0.00 0.00 97 1017.2
20260906060900 60 114 0.0 0.0 0.00 0.00 0.00 97 1017.2
20260906060358 60 114 0.0 0.0 0.00 0.00 0.00 97 1017.6
20260906055853 60 114 0.0 0.0 0.00 0.00 0.00 97 1017.6
20260906055349 60 114 0.0 0.0 0.00 0.00 0.00 97 1017.2
20260906054844 60 114 0.0 0.0 0.00 0.00 0.00 97 1017.6
20260906054338 60 114 0.0 0.0 0.00 0.00 0.00 97 1017.6
20260906053835 61 114 0.0 0.0 0.00 0.00 0.00 97 1017.6
20260906053331 61 114 0.0 0.0 0.00 0.00 0.00 97 1017.6
20260906052826 61 114 0.0 0.0 0.00 0.00 0.00 97 1017.6
20260906052322 61 114 0.0 0.0 0.00 0.00 0.00 97 1017.6
20260906051819 61 114 0.0 0.0 0.00 0.00 0.00 97 1017.2
20260906051318 61 114 0.0 0.0 0.00 0.00 0.00 97 1017.6
20260906050814 62 114 0.0 0.0 0.00 0.00 0.00 97 1017.6
20260906050309 62 114 0.0 0.0 0.00 0.00 0.00 97 1017.2
20260906045808 62 114 0.0 0.0 0.00 0.00 0.00 97 1017.2
20260906045305 62 114 0.0 0.0 0.00 0.00 0.00 97 1017.6
20260906044759 62 114 0.0 0.0 0.00 0.00 0.00 97 1017.6
20260906044253 62 114 0.0 0.0 0.00 0.00 0.00 97 1017.2
20260906043749 62 114 0.0 0.0 0.00 0.00 0.00 97 1017.2
20260906043245 63 114 0.0 0.0 0.00 0.00 0.00 97 1017.2
20260906042745 63 114 0.0 0.0 0.00 0.00 0.00 97 1017.2
20260906042244 63 114 0.0 0.0 0.00 0.00 0.00 97 1017.6
20260906041739 63 114 0.0 0.0 0.00 0.00 0.00 96 1017.2
20260906041235 64 114 0.0 0.0 0.00 0.00 0.00 97 1016.9
20260906040730 64 114 0.0 0.0 0.00 0.00 0.00 96 1016.9
20260906040225 64 114 0.0 0.0 0.00 0.00 0.00 96 1016.9
20260906035721 64 114 0.0 0.0 0.00 0.00 0.00 96 1016.9
20260906035216 64 114 0.0 0.0 0.00 0.00 0.00 96 1016.9
20260906034716 64 114 0.0 0.0 0.00 0.00 0.00 96 1016.9
20260906034211 64 114 0.0 0.0 0.00 0.00 0.00 96 1016.6
20260906033707 64 114 0.0 0.0 0.00 0.00 0.00 96 1016.9
20260906033206 64 114 0.0 0.0 0.00 0.00 0.00 96 1016.6
20260906032703 65 114 0.0 0.0 0.00 0.00 0.00 96 1016.6
20260906032158 65 114 0.0 0.0 0.00 0.00 0.00 96 1016.2
20260906031653 65 114 0.0 0.0 0.00 0.00 0.00 96 1016.6
20260906031148 65 114 0.0 0.0 0.00 0.00 0.00 96 1016.2
20260906030648 65 114 0.0 0.0 0.00 0.00 0.00 96 1016.2
20260906030143 65 114 0.0 0.0 0.00 0.00 0.00 96 1016.2
20260906025642 66 114 0.0 0.0 0.00 0.00 0.00 96 1016.2
20260906025142 66 114 0.0 0.0 0.00 0.00 0.00 96 1016.2
20260906024637 66 114 0.0 0.0 0.00 0.00 0.00 96 1015.9
20260906024136 66 114 0.0 0.0 0.00 0.00 0.00 96 1015.9
20260906023632 66 114 0.0 0.0 0.00 0.00 0.00 96 1015.9
20260906023132 66 114 0.0 0.0 0.00 0.00 0.00 96 1016.2
20260906022627 66 114 0.0 0.0 0.00 0.00 0.00 96 1015.9
20260906022123 66 114 0.0 0.0 0.00 0.00 0.00 95 1015.9
20260906021619 66 114 0.0 0.0 0.00 0.00 0.00 95 1016.2
20260906021117 66 114 0.0 0.0 0.00 0.00 0.00 95 1015.9
20260906020617 66 114 0.0 0.0 0.00 0.00 0.00 95 1016.2
20260906020112 66 114 0.0 0.0 0.00 0.00 0.00 95 1015.9
20260906015606 66 114 0.0 0.0 0.00 0.00 0.00 95 1015.9
20260906015105 66 114 0.0 0.0 0.00 0.00 0.00 95 1015.9
20260906014559 67 114 0.0 0.0 0.00 0.00 0.00 94 1015.5
20260906014056 67 114 0.0 0.0 0.00 0.00 0.00 94 1015.5
20260906013551 67 114 0.0 0.0 0.00 0.00 0.00 94 1015.5
20260906013046 67 115 0.0 0.0 0.00 0.00 0.00 94 1015.1
20260906012541 67 114 0.0 0.0 0.00 0.00 0.00 94 1015.1
20260906012041 67 114 0.0 0.0 0.00 0.00 0.00 94 1015.1
20260906011537 67 114 0.0 0.0 0.00 0.00 0.00 93 1015.1
20260906011037 67 114 0.0 0.0 0.00 0.00 0.00 93 1015.1
20260906010532 68 114 0.0 0.0 0.00 0.00 0.00 92 1015.1
20260906010028 68 114 0.0 0.0 0.00 0.00 0.00 92 1015.1
20260906005527 68 114 0.0 0.0 0.00 0.00 0.00 91 1015.1
20260906005027 69 114 0.0 0.0 0.00 0.00 0.00 90 1015.1
20260906004526 69 114 0.0 0.0 0.00 0.00 0.00 89 1015.1
20260906004021 70 114 0.0 0.0 0.00 0.00 0.00 89 1015.1
20260906003516 70 114 0.0 0.0 0.00 0.00 0.00 88 1015.1
20260906003013 70 114 0.0 0.0 0.00 0.00 0.00 88 1015.1
20260906002507 71 114 0.0 0.0 0.00 0.00 0.00 87 1015.1
20260906002002 71 114 0.0 0.0 0.00 0.00 0.00 87 1015.1
20260906001457 71 113 0.0 0.0 0.00 0.00 0.00 86 1015.1
20260906000951 72 113 1.7 1.7 0.00 0.00 0.00 85 1015.1
20260906000448 72 113 0.0 0.0 0.00 0.00 0.00 85 1015.5
20260905235942 73 112 0.0 0.0 0.00 0.00 0.00 85 1015.1
20260905235442 73 112 0.0 0.0 0.00 0.00 0.00 84 1015.5
20260905234937 73 103 0.0 0.0 0.00 0.00 0.00 83 1015.5
20260905234433 74 103 1.7 1.7 0.00 0.00 0.00 82 1015.1
20260905233932 74 102 0.9 0.9 0.00 0.00 0.00 81 1015.9
20260905233428 75 102 0.0 0.0 0.00 0.00 0.00 80 1015.9
20260905232927 75 105 0.0 0.0 0.00 0.00 0.00 80 1015.5
20260905232423 76 105 0.0 0.0 0.00 0.00 0.00 78 1015.5
20260905231918 76 105 0.0 0.0 0.00 0.00 0.00 77 1015.9
20260905231414 76 104 0.0 0.0 0.00 0.00 0.00 75 1015.5
20260905230911 78 105 0.0 0.0 0.00 0.00 0.00 74 1015.5
20260905230408 78 103 0.0 0.0 0.00 0.00 0.00 74 1015.1
20260905225907 78 126 0.0 0.0 0.00 0.00 0.00 70 1015.5
20260905225402 78 126 0.0 0.0 0.00 0.00 0.00 72 1015.5
20260905224857 78 79 1.7 1.7 0.00 0.00 0.00 72 1015.5
20260905224354 78 109 0.0 0.0 0.00 0.00 0.00 71 1015.1
20260905223848 78 99 0.0 0.0 0.00 0.00 0.00 72 1015.1
20260905223346 79 100 0.9 0.9 0.00 0.00 0.00 69 1015.1
20260905222846 79 150 1.7 1.7 0.00 0.00 0.00 71 1015.1
20260905222344 79 266 1.7 1.7 0.00 0.00 0.00 70 1015.1
20260905221841 80 223 0.0 0.0 0.00 0.00 0.00 68 1015.1
20260905221337 79 198 0.0 0.0 0.00 0.00 0.00 71 1015.1
20260905220833 79 133 1.7 1.7 0.00 0.00 0.00 70 1015.1
20260905220329 79 133 1.7 1.7 0.00 0.00 0.00 71 1015.1
20260905215828 81 158 1.7 1.7 0.00 0.00 0.00 68 1015.1
20260905215324 80 119 0.0 0.0 0.00 0.00 0.00 69 1015.5
20260905214820 80 156 0.0 0.0 0.00 0.00 0.00 67 1015.1
20260905214315 80 243 1.7 1.7 0.00 0.00 0.00 69 1014.8
20260905213810 80 192 0.0 0.0 0.00 0.00 0.00 70 1015.1
20260905213306 79 108 1.7 1.7 0.00 0.00 0.00 70 1015.1
20260905212801 79 146 1.7 1.7 0.00 0.00 0.00 72 1015.5
20260905212300 79 146 0.0 0.0 0.00 0.00 0.00 72 1015.1
20260905211755 80 146 0.0 0.0 0.00 0.00 0.00 70 1015.5
20260905211250 80 146 0.0 0.0 0.00 0.00 0.00 69 1015.1
20260905210747 82 146 0.0 0.0 0.00 0.00 0.00 65 1015.1
20260905210246 80 102 0.0 0.0 0.00 0.00 0.00 70 1015.1
20260905205745 79 202 0.0 0.0 0.00 0.00 0.00 68 1015.5
20260905205240 78 156 0.0 0.0 0.00 0.00 0.00 74 1015.5
20260905204739 78 38 0.0 0.0 0.00 0.00 0.00 73 1015.1
20260905204235 78 40 0.0 0.0 0.00 0.00 0.00 73 1015.1
20260905203735 79 37 0.0 0.0 0.00 0.00 0.00 72 1015.1
20260905203230 79 37 0.0 0.0 0.00 0.00 0.00 73 1015.5
20260905202726 78 36 0.0 0.0 0.00 0.00 0.00 74 1015.1
20260905202221 79 82 1.7 1.7 0.00 0.00 0.00 72 1015.1
20260905201717 80 350 1.7 1.7 0.00 0.00 0.00 70 1015.1
20260905201216 80 18 0.9 0.9 0.00 0.00 0.00 71 1015.5
20260905200712 79 107 0.0 0.0 0.00 0.00 0.00 72 1015.5
20260905200208 78 107 0.0 0.0 0.00 0.00 0.00 75 1015.5
20260905195705 78 107 1.7 1.7 0.00 0.00 0.00 75 1015.1
20260905195200 78 120 0.0 0.0 0.00 0.00 0.00 74 1015.5
20260905194655 78 114 0.0 0.0 0.00 0.00 0.00 76 1015.1
20260905194150 78 114 0.9 0.9 0.00 0.00 0.00 77 1015.5
20260905193649 78 119 0.0 0.0 0.00 0.00 0.00 74 1015.5
20260905193144 78 132 1.7 1.7 0.00 0.00 0.00 77 1015.5
20260905192640 78 133 0.0 0.0 0.00 0.00 0.00 79 1015.5
20260905192137 77 102 0.0 0.0 0.00 0.00 0.00 81 1015.5
20260905191636 78 97 1.7 1.7 0.00 0.00 0.00 77 1015.5
20260905191134 78 86 0.0 0.0 0.00 0.00 0.00 77 1015.5
20260905190633 78 86 0.0 0.0 0.00 0.00 0.00 77 1015.9
20260905190132 78 13 1.7 1.7 0.00 0.00 0.00 77 1015.9
20260905185631 79 120 0.0 0.0 0.00 0.00 0.00 74 1015.9
20260905185125 79 120 1.7 1.7 0.00 0.00 0.00 73 1015.9
20260905184620 78 120 0.0 0.0 0.00 0.00 0.00 75 1015.9
20260905184119 78 286 2.6 2.6 0.00 0.00 0.00 78 1015.5
20260905183619 78 239 1.7 1.7 0.00 0.00 0.00 79 1015.9
20260905183114 78 126 1.7 1.7 0.00 0.00 0.00 78 1015.9
20260905182613 78 126 0.0 0.0 0.00 0.00 0.00 77 1015.9
20260905182114 78 125 1.7 1.7 0.00 0.00 0.00 79 1015.9
20260905181614 78 95 0.9 0.9 0.00 0.00 0.00 78 1015.9
20260905181113 78 140 1.7 1.7 0.00 0.00 0.00 77 1015.9
20260905180608 78 145 0.0 0.0 0.00 0.00 0.00 78 1015.5
20260905180103 78 164 1.7 1.7 0.00 0.00 0.00 78 1015.5
20260905175602 78 198 1.7 1.7 0.00 0.00 0.00 78 1015.9
20260905175058 78 119 0.0 0.0 0.00 0.00 0.00 80 1015.5
20260905174553 77 102 1.7 1.7 0.00 0.00 0.00 79 1015.9
20260905174049 77 109 0.0 0.0 0.00 0.00 0.00 80 1015.9
20260905173545 77 134 1.7 1.7 0.00 0.00 0.00 80 1015.9
20260905173040 77 134 0.0 0.0 0.00 0.00 0.00 81 1016.2
20260905172539 76 274 0.0 0.0 0.00 0.00 0.00 81 1015.9
20260905172034 76 274 0.9 0.9 0.00 0.00 0.00 82 1016.2
20260905171531 76 240 0.9 0.9 0.00 0.00 0.00 83 1015.9
20260905171026 75 264 0.0 0.0 0.00 0.00 0.00 85 1016.2
20260905170523 75 264 1.7 1.7 0.00 0.00 0.00 85 1016.2
20260905170023 77 318 0.0 0.0 0.00 0.00 0.00 83 1016.2
20260905165518 77 318 0.0 0.0 0.00 0.00 0.00 81 1016.2
20260905165013 76 319 1.7 1.7 0.00 0.00 0.00 81 1016.2
20260905164508 77 136 1.7 1.7 0.00 0.00 0.00 80 1016.2
20260905164002 77 136 1.7 1.7 0.00 0.00 0.00 81 1016.2
20260905163459 76 291 1.7 1.7 0.00 0.00 0.00 82 1016.2
20260905162954 75 293 0.0 0.0 0.00 0.00 0.00 85 1015.9
20260905162449 76 112 0.0 0.0 0.00 0.00 0.00 83 1015.9
20260905161944 76 83 0.0 0.0 0.00 0.00 0.00 83 1015.9
20260905161443 76 88 0.0 0.0 0.00 0.00 0.00 83 1015.9